Probability
0 0 0 1 0 0 1 1 1 1 1 2 3 4 6 8 10 13 15 16 16 14 12 12 12 10 9 11 14 14 12 9 7 6 6 8 8 7 7 6 4 4 4 3
0 0 1 2 1 1 1 1 2 3 2 3 4 6 8 10 11 12 12 13 13 11 10 10 11 11 10 11 13 12 9 7 6 7 8 9 9 8 8 7 5 3 2 2
0 1 2 3 3 3 2 2 2 3 2 4 7 8 10 11 11 10 9 8 8 8 7 8 9 10 10 11 12 10 8 6 5 7 10 11 10 9 9 8 6 3 2 1
0 1 2 3 3 3 3 2 2 2 3 6 10 10 10 11 10 8 6 6 6 6 5 5 7 8 9 11 11 9 7 5 5 6 9 10 9 8 9 8 6 4 3 2
0 1 2 3 3 3 3 4 4 4 6 10 13 13 11 12 11 9 7 6 6 5 4 5 6 7 7 8 8 7 6 5 5 6 7 6 5 6 7 6 5 4 5 5
0 1 2 3 2 2 3 5 6 8 10 12 12 12 12 13 14 12 8 7 6 5 5 6 6 6 5 5 6 6 6 5 5 6 6 5 3 3 4 5 4 3 4 5
0 0 1 2 2 2 2 3 6 8 9 9 8 8 10 13 15 13 9 6 6 5 5 6 6 5 3 4 5 6 5 4 4 5 5 4 2 1 1 2 2 1 2 3
1 1 1 1 2 2 1 3 5 5 5 5 7 8 8 9 12 10 7 4 4 4 4 5 6 5 4 4 4 4 4 4 3 3 4 3 2 1 1 1 1 0 0 1
2 1 1 1 2 1 3 5 5 3 2 3 6 8 7 7 8 6 4 2 2 2 2 3 5 6 6 5 4 3 3 3 2 2 3 3 3 3 2 1 0 0 0 1
1 1 1 2 2 2 3 5 5 4 3 3 4 5 6 7 6 4 2 2 1 1 2 3 4 5 6 6 5 4 3 3 2 1 3 3 3 3 2 1 1 0 1 2
1 2 3 3 3 2 3 4 6 5 4 3 4 6 7 9 8 5 3 1 0 1 2 2 2 3 4 5 4 3 4 4 3 1 2 2 2 2 1 1 1 1 2 3
2 3 3 3 3 3 4 5 7 7 5 5 6 8 9 9 7 6 4 2 1 1 2 2 2 2 3 5 4 3 4 5 4 1 1 1 0 0 0 0 0 0 1 1
1 2 3 3 4 5 7 7 8 7 7 8 9 9 9 7 5 4 5 5 4 4 4 4 4 4 4 5 5 4 4 4 3 1 0 0 0 0 0 0 0 0 0 0
0 1 3 3 5 8 9 7 6 6 7 8 8 8 6 4 3 3 3 5 6 6 6 7 8 7 5 4 5 6 5 4 3 1 0 0 0 0 0 0 0 0 0 0
0 1 3 4 6 9 9 6 5 5 5 7 7 6 5 3 2 2 2 3 5 6 7 9 10 8 6 5 5 7 7 6 5 2 1 0 0 0 0 0 0 0 1 1
1 2 3 3 5 6 6 6 5 5 5 6 6 6 4 3 3 2 2 3 4 5 6 7 8 7 6 6 6 7 8 8 6 4 2 1 1 2 2 2 2 2 2 2
3 3 3 3 3 4 5 6 6 7 6 6 6 5 4 4 4 3 2 2 3 4 5 5 4 5 6 7 8 8 9 8 6 5 4 4 4 5 5 5 5 5 5 5
4 4 4 3 2 3 4 6 7 8 7 6 5 5 4 4 4 3 2 2 2 2 3 3 3 3 4 6 8 9 9 9 7 6 6 6 6 6 6 6 7 8 7 7
6 5 5 4 3 3 4 6 7 7 7 6 5 5 5 4 3 2 2 3 2 3 3 3 2 2 3 4 7 9 10 9 7 6 6 6 6 6 6 6 6 6 6 6
5 6 5 5 5 5 5 7 8 7 6 6 4 4 4 3 1 1 2 3 3 3 3 2 1 1 1 2 4 7 9 8 7 6 6 6 6 5 4 4 4 4 4 4
3 4 5 5 5 6 7 8 9 7 5 3 2 1 1 1 1 1 3 3 3 3 3 2 1 1 0 1 2 4 5 6 6 5 5 4 4 4 3 3 3 3 3 3
1 3 4 3 4 6 7 7 7 5 3 2 1 0 0 0 1 2 3 3 3 2 2 2 1 1 0 0 0 1 2 3 4 5 4 3 3 3 3 3 3 3 3 3
2 3 3 3 3 4 4 4 4 3 2 1 1 1 1 1 1 2 3 2 1 1 1 1 0 0 0 0 0 0 0 1 2 3 3 3 3 3 3 3 3 3 3 3
6 6 5 5 4 3 2 3 4 4 3 2 2 2 2 1 1 1 1 1 0 0 0 0 0 0 0 0 0 0 0 0 1 2 3 3 3 3 3 3 3 3 3 3
8 8 7 6 4 2 2 3 5 5 5 3 3 3 3 1 0 0 0 0 0 0 0 0 0 0 0 0 0 0 0 0 1 2 3 3 3 3 3 3 3 3 3 3
6 7 6 5 3 2 2 4 4 4 4 3 2 2 2 1 0 0 0 0 0 0 0 0 0 0 0 0 0 0 0 0 1 2 2 2 2 2 2 2 2 2 2 1
4 5 6 5 3 2 3 3 3 3 3 2 2 1 1 0 0 0 0 0 0 0 0 0 0 0 0 0 0 0 0 0 0 1 1 1 1 1 1 1 1 1 1 0
Wind_Speed
3 3 1 0 1 1 3 5 6 5 6 8 8 8 8 9 9 9 8 7 7 6 5 5 4 4 5 4 4 4 4 4 3 2 2 2 2 2 1 1 2 1 1 1
2 1 2 2 2 1 2 3 4 4 2 4 5 6 6 8 10 9 8 8 7 7 7 6 6 5 5 4 4 4 4 3 3 2 2 1 1 2 1 1 1 2 2 1
2 3 3 2 3 1 1 2 5 5 5 4 6 7 9 10 10 10 9 8 8 7 7 6 6 6 6 5 5 4 4 3 3 2 2 1 1 1 1 1 1 1 0 1
1 3 1 6 3 2 4 3 2 4 5 7 8 6 6 7 9 9 9 8 7 7 6 5 5 5 5 5 5 4 4 3 3 2 2 1 1 1 1 1 1 1 1 0
3 2 3 5 3 1 3 2 0 5 7 7 8 8 3 2 6 7 7 6 6 6 6 5 5 5 5 4 4 4 4 3 3 3 2 2 1 2 2 1 1 1 1 1
4 3 4 5 6 1 6 1 2 4 8 8 7 5 3 4 6 6 6 5 5 5 6 5 4 5 5 4 4 3 3 4 3 4 4 3 3 2 2 2 1 1 1 1
4 3 4 5 5 3 4 5 2 4 6 7 4 5 5 5 6 6 6 6 6 6 5 5 5 6 5 4 4 4 3 3 2 3 3 3 2 2 2 1 1 1 1 1
3 2 5 5 3 3 5 3 4 5 5 6 5 5 5 6 6 6 5 5 6 5 4 3 5 6 5 4 3 2 2 2 2 2 2 2 2 2 1 1 1 1 0 1
4 4 4 1 2 2 3 5 4 4 4 7 6 4 4 5 6 5 5 5 4 5 4 3 4 5 5 4 3 3 2 2 2 2 2 2 3 2 2 2 2 1 1 1
2 1 1 2 3 3 4 5 5 6 6 7 6 5 5 5 5 5 4 5 4 5 4 2 2 3 4 4 4 4 3 2 2 2 1 1 1 2 2 2 2 2 2 2
2 3 4 4 3 3 3 5 6 6 6 7 7 5 5 5 5 4 4 3 4 4 4 3 3 2 3 3 4 3 2 2 2 2 2 2 1 1 3 3 4 4 3 3
3 4 2 3 3 2 3 3 5 6 5 4 5 5 5 5 4 4 4 3 3 3 3 2 3 2 2 3 4 4 2 2 2 2 1 2 2 0 2 1 3 4 4 4
3 2 2 0 2 3 2 2 3 4 5 4 3 4 5 4 3 4 4 3 3 3 3 3 3 2 2 3 3 3 3 3 2 2 2 2 2 2 1 3 2 2 3 4
2 3 3 2 1 2 1 2 3 3 3 4 3 4 4 4 3 4 3 2 2 2 2 2 3 3 3 3 3 2 2 2 2 2 2 2 2 2 2 2 1 1 2 3
1 3 3 1 2 3 2 2 3 3 2 2 2 4 4 5 4 4 3 3 3 2 1 1 2 2 2 3 3 2 2 2 2 2 2 2 2 2 2 1 2 1 1 2
1 2 2 3 2 2 1 1 2 2 2 2 2 3 3 4 4 3 3 3 3 2 2 2 2 3 2 3 3 3 3 4 3 2 2 2 2 2 2 2 2 2 2 3
3 2 2 1 1 0 0 1 3 4 3 3 3 3 3 3 3 2 2 2 3 3 2 3 3 3 2 3 3 2 2 3 3 2 2 3 3 3 3 3 3 3 4 4
4 4 4 4 2 1 2 1 1 3 3 3 3 3 4 4 4 4 3 2 2 1 2 3 3 2 2 2 3 2 2 3 3 3 3 3 3 3 3 3 4 4 3 3
2 2 2 3 3 2 1 1 2 2 2 3 3 3 3 4 4 3 3 3 2 3 4 3 3 2 2 3 2 2 2 3 2 2 2 3 3 2 3 3 3 3 3 2
1 2 2 2 2 3 2 1 1 1 1 2 2 2 1 2 3 3 2 3 4 4 4 3 3 2 2 2 2 2 3 3 3 3 2 2 3 3 3 3 3 3 2 2
1 1 1 1 1 1 2 2 1 1 1 2 3 3 3 2 2 2 2 2 4 3 3 4 3 3 2 2 2 2 2 3 3 3 3 3 2 2 2 2 2 2 2 2
1 1 1 1 1 1 0 1 1 1 1 1 2 2 2 1 1 1 2 3 3 3 2 2 2 3 3 3 2 2 3 3 2 2 2 2 2 2 2 2 2 2 2 2
1 0 1 1 1 0 1 1 0 1 1 2 2 2 2 2 2 2 2 2 1 2 2 2 3 4 3 2 2 2 2 2 2 2 2 2 2 3 2 3 2 2 2 2
1 0 0 1 1 1 1 1 1 1 1 1 1 2 2 1 0 1 2 2 2 2 1 2 3 3 2 1 1 1 1 1 1 1 1 1 1 1 2 2 1 1 1 2
2 1 0 1 1 1 1 1 1 1 1 0 1 0 1 2 2 1 0 1 1 1 0 1 2 2 1 1 1 1 1 1 2 2 2 1 1 1 1 1 1 1 1 1
2 1 1 1 1 1 1 0 0 0 1 1 1 1 0 0 1 1 1 1 0 1 1 0 1 1 1 1 0 1 1 1 1 2 2 2 2 2 1 1 1 1 1 1
2 1 1 2 1 1 0 1 1 0 1 1 0 0 1 1 1 2 2 1 1 1 0 0 0 1 1 0 0 0 0 1 1 1 1 2 2 2 2 2 1 1 1 1
Wind_Direction
208 210 163 308 272 155 141 174 176 209 193 203 187 172 156 145 140 139 139 140 140 145 142 136 129 128 129 129 127 127 122 127 138 154 151 136 129 118 107 107 97 84 56 31
351 16 45 4 335 154 153 145 146 130 219 220 164 142 139 145 147 150 156 156 152 149 146 146 143 142 141 137 131 128 131 137 146 141 135 145 151 141 129 118 102 85 67 40
287 313 49 338 301 311 107 137 151 180 212 166 138 151 159 160 155 159 161 157 156 157 154 149 149 151 155 152 144 138 141 144 147 143 136 152 158 140 171 172 125 107 93 62
166 42 245 246 270 94 102 89 137 162 158 155 150 153 157 158 159 163 164 163 163 158 155 153 150 150 146 139 138 133 135 143 151 149 150 156 155 172 196 169 147 178 208 214
129 149 273 300 322 72 120 57 45 135 134 134 116 90 76 161 154 162 162 160 158 156 150 150 154 150 140 135 138 138 150 164 172 171 166 173 190 209 205 171 171 210 214 209
131 145 218 256 287 288 104 53 312 134 141 143 121 124 204 169 136 140 141 142 141 139 133 144 158 144 136 144 150 166 180 185 181 176 180 193 202 207 196 172 202 201 221 251
152 183 239 272 302 49 114 225 236 132 136 138 144 174 172 139 127 130 136 135 128 129 137 158 160 146 146 157 181 192 183 175 176 181 188 194 192 191 191 182 181 187 190 256
133 155 245 298 36 116 195 187 107 101 112 118 120 111 118 127 131 131 127 121 121 122 133 158 157 148 152 177 194 178 164 162 176 185 197 183 184 201 197 166 157 186 179 302
169 200 241 271 129 169 135 110 105 109 107 109 107 115 131 134 133 129 130 127 125 132 132 142 159 157 167 184 165 152 155 179 198 194 201 189 184 190 190 178 178 206 201 239
59 320 309 65 64 58 87 105 109 111 113 111 110 115 124 122 123 128 130 131 125 122 127 144 174 168 173 173 161 154 172 201 200 185 198 181 182 183 180 187 190 202 211 232
36 326 8 10 29 61 72 88 95 99 104 114 114 117 130 130 130 131 132 138 137 140 155 173 165 165 164 153 146 151 172 192 192 192 183 177 182 201 198 207 196 188 202 202
210 237 193 273 313 26 92 108 118 111 101 112 122 135 137 140 143 138 132 133 133 142 154 168 157 160 161 153 149 151 165 190 191 193 180 169 163 7 343 261 223 199 195 191
187 209 153 213 7 34 80 103 111 119 133 133 128 141 141 141 142 132 124 124 144 165 170 167 163 168 174 164 160 164 177 189 194 188 179 180 174 171 227 334 345 251 216 209
129 86 54 23 5 1 47 92 93 93 113 135 140 140 132 125 122 124 136 153 152 155 164 165 163 176 181 164 161 172 184 187 178 184 186 187 188 191 184 185 234 311 278 238
99 119 148 110 32 19 23 80 92 91 96 110 137 132 133 137 148 159 162 150 121 118 171 165 169 198 189 162 165 179 179 184 188 189 188 184 187 183 185 189 196 223 277 289
115 99 107 97 77 42 23 87 132 138 137 148 138 139 148 152 156 156 153 147 139 168 205 188 198 216 202 179 178 184 195 200 194 187 190 184 186 187 194 200 210 217 231 245
143 147 114 101 115 54 299 229 176 164 156 153 157 152 138 131 134 144 169 179 167 184 203 201 212 220 211 199 192 202 205 203 198 187 192 194 197 201 202 206 215 223 236 238
177 180 172 174 182 203 263 268 179 163 163 167 155 140 144 158 173 184 187 171 150 200 238 224 217 217 213 197 201 206 199 194 191 194 198 200 205 206 203 207 216 223 238 242
138 144 147 146 149 155 219 250 221 182 149 142 143 162 178 183 183 186 178 165 181 228 248 238 221 211 213 219 213 200 197 195 199 206 204 209 216 216 210 210 218 221 221 217
80 117 128 135 136 144 158 200 183 142 154 137 129 150 181 192 187 190 185 207 220 217 216 218 211 212 210 215 213 201 202 201 206 216 217 211 212 219 220 217 212 210 209 204
70 79 98 114 107 115 134 148 136 162 188 143 143 173 201 214 203 187 189 241 260 227 202 205 200 202 202 210 203 209 220 215 210 213 215 219 219 220 214 208 199 194 195 199
18 28 45 84 86 61 64 126 161 197 184 160 165 173 181 207 214 220 227 224 234 217 199 202 206 205 206 207 203 208 217 218 212 210 206 202 195 194 196 194 198 203 200 203
345 321 104 106 115 230 348 14 242 204 200 202 194 189 193 210 195 178 254 271 235 210 204 209 209 211 212 197 198 199 204 208 206 209 207 200 195 191 189 195 198 191 189 187
312 326 135 132 98 80 25 322 312 284 248 237 221 199 176 165 267 249 211 213 211 210 213 229 234 222 201 192 199 194 197 207 194 187 180 179 185 179 175 178 187 196 190 181
307 318 27 91 100 225 252 275 326 338 6 9 308 274 185 168 184 214 144 147 167 150 162 235 235 203 170 182 207 191 196 200 179 165 154 148 158 161 163 168 183 193 177 173
311 298 261 223 207 221 242 298 324 299 87 75 23 349 26 125 139 132 112 112 107 101 114 186 174 149 137 149 200 197 204 183 150 144 146 149 152 149 145 141 141 148 172 177
353 346 349 355 340 314 25 109 114 61 91 116 105 339 50 72 87 104 115 102 83 78 62 24 173 162 147 171 223 202 173 141 142 146 146 150 152 150 155 156 155 158 171 181